| time (UTC) | temp C | wind direction | speed KPH | gust KPH | rain 1hr cm | rain 24hr cm | rain mn cm | humidity % | barometer mb |
| 20260502233258 | 26 | 129 | 6.4 | 12.9 | 0.00 | 0.00 | 0.00 | 42 | 1008.0 |
| 20260502232258 | 27 | 129 | 6.4 | 12.9 | 0.00 | 0.00 | 0.00 | 41 | 1007.0 |
| 20260502231257 | 26 | 129 | 6.4 | 12.9 | 0.00 | 0.00 | 0.00 | 41 | 1007.0 |
| 20260502230257 | 27 | 129 | 6.4 | 12.9 | 0.00 | 0.00 | 0.00 | 41 | 1007.0 |
| 20260502225257 | 27 | 129 | 6.4 | 12.9 | 0.00 | 0.00 | 0.00 | 41 | 1007.0 |
| 20260502224256 | 28 | 129 | 6.4 | 12.9 | 0.00 | 0.00 | 0.00 | 41 | 1007.0 |
| 20260502223256 | 28 | 129 | 6.4 | 12.9 | 0.00 | 0.00 | 0.00 | 41 | 1007.0 |
| 20260502222256 | 27 | 104 | 1.6 | 11.3 | 0.00 | 0.00 | 0.00 | 41 | 1007.0 |
| 20260502221255 | 27 | 104 | 1.6 | 11.3 | 0.00 | 0.00 | 0.00 | 41 | 1007.0 |
| 20260502220255 | 28 | 104 | 1.6 | 11.3 | 0.00 | 0.00 | 0.00 | 41 | 1007.0 |
| 20260502215255 | 27 | 104 | 1.6 | 11.3 | 0.00 | 0.00 | 0.00 | 40 | 1007.0 |
| 20260502214254 | 28 | 104 | 1.6 | 11.3 | 0.00 | 0.00 | 0.00 | 40 | 1007.0 |
| 20260502213254 | 27 | 121 | 1.6 | 8.0 | 0.00 | 0.00 | 0.00 | 40 | 1007.0 |
| 20260502212254 | 28 | 121 | 1.6 | 9.7 | 0.00 | 0.00 | 0.00 | 40 | 1007.0 |
| 20260502211254 | 28 | 121 | 1.6 | 8.0 | 0.00 | 0.00 | 0.00 | 41 | 1007.0 |
| 20260502210253 | 28 | 121 | 1.6 | 8.0 | 0.00 | 0.00 | 0.00 | 41 | 1007.0 |
| 20260502205253 | 28 | 121 | 1.6 | 9.7 | 0.00 | 0.00 | 0.00 | 41 | 1007.0 |
| 20260502204253 | 28 | 121 | 1.6 | 8.0 | 0.00 | 0.00 | 0.00 | 41 | 1007.0 |
| 20260502203252 | 28 | 121 | 1.6 | 9.7 | 0.00 | 0.00 | 0.00 | 41 | 1007.0 |
| 20260502202252 | 28 | 104 | 3.2 | 8.0 | 0.00 | 0.00 | 0.00 | 41 | 1008.0 |
| 20260502201251 | 28 | 104 | 3.2 | 8.0 | 0.00 | 0.00 | 0.00 | 41 | 1008.0 |
| 20260502200251 | 28 | 104 | 3.2 | 8.0 | 0.00 | 0.00 | 0.00 | 41 | 1008.0 |
| 20260502195251 | 28 | 104 | 3.2 | 8.0 | 0.00 | 0.00 | 0.00 | 41 | 1008.0 |
| 20260502194250 | 28 | 104 | 1.6 | 8.0 | 0.00 | 0.00 | 0.00 | 41 | 1008.0 |
| 20260502193250 | 30 | 104 | 3.2 | 8.0 | 0.00 | 0.00 | 0.00 | 41 | 1008.0 |
| 20260502192250 | 26 | 77 | 6.4 | 9.7 | 0.00 | 0.00 | 0.00 | 45 | 1009.0 |
| 20260502191250 | 27 | 77 | 6.4 | 9.7 | 0.00 | 0.00 | 0.00 | 44 | 1009.0 |
| 20260502190250 | 27 | 77 | 6.4 | 9.7 | 0.00 | 0.00 | 0.00 | 44 | 1009.0 |
| 20260502185249 | 28 | 77 | 6.4 | 9.7 | 0.00 | 0.00 | 0.00 | 43 | 1009.0 |
| 20260502184249 | 27 | 77 | 6.4 | 8.0 | 0.00 | 0.00 | 0.00 | 44 | 1009.0 |
| 20260502183248 | 28 | 77 | 6.4 | 9.7 | 0.00 | 0.00 | 0.00 | 44 | 1009.0 |
| 20260502182249 | 26 | 60 | 9.7 | 11.3 | 0.00 | 0.00 | 0.00 | 50 | 1010.0 |
| 20260502181248 | 26 | 60 | 9.7 | 11.3 | 0.00 | 0.00 | 0.00 | 50 | 1010.0 |
| 20260502180247 | 26 | 60 | 9.7 | 11.3 | 0.00 | 0.00 | 0.00 | 50 | 1010.0 |
| 20260502170246 | 26 | 60 | 11.3 | 12.9 | 0.00 | 0.00 | 0.00 | 54 | 1011.0 |
| 20260502164245 | 26 | 60 | 11.3 | 12.9 | 0.00 | 0.00 | 0.00 | 55 | 1011.0 |
| 20260502163245 | 26 | 61 | 11.3 | 12.9 | 0.00 | 0.00 | 0.00 | 60 | 1011.0 |
| 20260502162244 | 27 | 61 | 11.3 | 12.9 | 0.00 | 0.00 | 0.00 | 62 | 1012.0 |
| 20260502161244 | 23 | 61 | 11.3 | 12.9 | 0.00 | 0.00 | 0.00 | 62 | 1012.0 |
| 20260502160244 | 24 | 61 | 11.3 | 12.9 | 0.00 | 0.00 | 0.00 | 62 | 1012.0 |
| 20260502152243 | 22 | 63 | 9.7 | 12.9 | 0.00 | 0.00 | 0.00 | 70 | 1012.0 |
| 20260502151242 | 23 | 63 | 9.7 | 12.9 | 0.00 | 0.00 | 0.00 | 70 | 1012.0 |
| 20260502150242 | 22 | 63 | 9.7 | 12.9 | 0.00 | 0.00 | 0.00 | 70 | 1012.0 |
| 20260502130238 | 20 | 68 | 6.4 | 16.1 | 0.00 | 0.00 | 0.00 | 83 | 1011.0 |
| 20260502123237 | 20 | 68 | 6.4 | 16.1 | 0.00 | 0.00 | 0.00 | 84 | 1012.0 |
| 20260502122237 | 19 | 84 | 4.8 | 16.1 | 0.00 | 0.00 | 0.00 | 84 | 1011.0 |
| 20260502121237 | 17 | 84 | 4.8 | 16.1 | 0.00 | 0.00 | 0.00 | 88 | 1011.0 |
| 20260502120236 | 18 | 84 | 4.8 | 16.1 | 0.00 | 0.00 | 0.00 | 88 | 1011.0 |
| 20260502115236 | 18 | 84 | 4.8 | 16.1 | 0.00 | 0.00 | 0.00 | 88 | 1011.0 |
| 20260502114236 | 18 | 84 | 4.8 | 16.1 | 0.00 | 0.00 | 0.00 | 88 | 1011.0 |
| 20260502113235 | 17 | 99 | 4.8 | 12.9 | 0.00 | 0.00 | 0.00 | 88 | 1011.0 |
| 20260502112235 | 18 | 99 | 4.8 | 12.9 | 0.00 | 0.00 | 0.00 | 88 | 1011.0 |
| 20260502111234 | 17 | 99 | 4.8 | 12.9 | 0.00 | 0.00 | 0.00 | 88 | 1011.0 |
| 20260502110234 | 18 | 99 | 4.8 | 12.9 | 0.00 | 0.00 | 0.00 | 88 | 1011.0 |
| 20260502105234 | 18 | 99 | 4.8 | 12.9 | 0.00 | 0.00 | 0.00 | 88 | 1011.0 |
| 20260502104234 | 17 | 99 | 4.8 | 12.9 | 0.00 | 0.00 | 0.00 | 87 | 1011.0 |
| 20260502103233 | 18 | 99 | 4.8 | 12.9 | 0.00 | 0.00 | 0.00 | 87 | 1011.0 |
| 20260502102233 | 17 | 98 | 4.8 | 12.9 | 0.00 | 0.00 | 0.00 | 88 | 1010.0 |
| 20260502101232 | 18 | 98 | 4.8 | 12.9 | 0.00 | 0.00 | 0.00 | 88 | 1010.0 |
| 20260502100232 | 20 | 98 | 4.8 | 12.9 | 0.00 | 0.00 | 0.00 | 88 | 1010.0 |
| 20260502091231 | 19 | 94 | 4.8 | 16.1 | 0.00 | 0.00 | 0.00 | 84 | 1010.0 |
| 20260502090231 | 19 | 94 | 4.8 | 16.1 | 0.00 | 0.00 | 0.00 | 84 | 1010.0 |
| 20260502071228 | 20 | 100 | 6.4 | 20.9 | 0.00 | 0.00 | 0.00 | 81 | 1011.0 |
| 20260502070227 | 21 | 100 | 6.4 | 20.9 | 0.00 | 0.00 | 0.00 | 81 | 1011.0 |
| 20260502065227 | 20 | 100 | 6.4 | 20.9 | 0.00 | 0.00 | 0.00 | 78 | 1011.0 |
| 20260502064227 | 21 | 100 | 6.4 | 20.9 | 0.00 | 0.00 | 0.00 | 77 | 1011.0 |
| 20260502063226 | 21 | 100 | 6.4 | 20.9 | 0.00 | 0.00 | 0.00 | 76 | 1010.0 |
| 20260502062226 | 19 | 98 | 6.4 | 20.9 | 0.00 | 0.00 | 0.00 | 78 | 1011.0 |
| 20260502061226 | 19 | 98 | 6.4 | 20.9 | 0.00 | 0.00 | 0.00 | 78 | 1011.0 |
| 20260502060226 | 20 | 98 | 6.4 | 20.9 | 0.00 | 0.00 | 0.00 | 78 | 1011.0 |
| 20260502055225 | 20 | 98 | 6.4 | 20.9 | 0.00 | 0.00 | 0.00 | 77 | 1011.0 |
| 20260502054225 | 21 | 98 | 6.4 | 20.9 | 0.00 | 0.00 | 0.00 | 76 | 1011.0 |
| 20260502053224 | 22 | 98 | 6.4 | 20.9 | 0.00 | 0.00 | 0.00 | 76 | 1011.0 |
| 20260502052224 | 20 | 97 | 8.0 | 22.5 | 0.00 | 0.00 | 0.00 | 77 | 1011.0 |
| 20260502051224 | 20 | 97 | 8.0 | 22.5 | 0.00 | 0.00 | 0.00 | 77 | 1011.0 |
| 20260502050223 | 19 | 97 | 8.0 | 22.5 | 0.00 | 0.00 | 0.00 | 76 | 1011.0 |
| 20260502045223 | 19 | 97 | 8.0 | 22.5 | 0.00 | 0.00 | 0.00 | 76 | 1011.0 |
| 20260502044223 | 20 | 97 | 8.0 | 22.5 | 0.00 | 0.00 | 0.00 | 76 | 1011.0 |
| 20260502043223 | 20 | 111 | 6.4 | 17.7 | 0.00 | 0.00 | 0.00 | 74 | 1011.0 |
| 20260502042222 | 21 | 111 | 6.4 | 19.3 | 0.00 | 0.00 | 0.00 | 73 | 1011.0 |
| 20260502041222 | 21 | 111 | 6.4 | 19.3 | 0.00 | 0.00 | 0.00 | 73 | 1011.0 |
| 20260502040222 | 20 | 111 | 6.4 | 17.7 | 0.00 | 0.00 | 0.00 | 74 | 1011.0 |
| 20260502035221 | 21 | 111 | 6.4 | 17.7 | 0.00 | 0.00 | 0.00 | 74 | 1011.0 |
| 20260502034221 | 21 | 111 | 6.4 | 19.3 | 0.00 | 0.00 | 0.00 | 74 | 1011.0 |
| 20260502033221 | 21 | 134 | 6.4 | 22.5 | 0.00 | 0.00 | 0.00 | 75 | 1011.0 |
| 20260502032221 | 21 | 134 | 6.4 | 22.5 | 0.00 | 0.00 | 0.00 | 75 | 1010.0 |
| 20260502031220 | 21 | 134 | 6.4 | 22.5 | 0.00 | 0.00 | 0.00 | 75 | 1010.0 |
| 20260502030220 | 21 | 134 | 6.4 | 22.5 | 0.00 | 0.00 | 0.00 | 75 | 1010.0 |
| 20260502025220 | 22 | 134 | 6.4 | 22.5 | 0.00 | 0.00 | 0.00 | 75 | 1010.0 |
| 20260502024220 | 21 | 134 | 6.4 | 22.5 | 0.00 | 0.00 | 0.00 | 77 | 1010.0 |
| 20260502023219 | 22 | 134 | 6.4 | 22.5 | 0.00 | 0.00 | 0.00 | 77 | 1010.0 |
| 20260502022219 | 21 | 131 | 6.4 | 24.1 | 0.00 | 0.00 | 0.00 | 78 | 1009.0 |
| 20260502021219 | 22 | 131 | 6.4 | 24.1 | 0.00 | 0.00 | 0.00 | 78 | 1009.0 |
| 20260502020218 | 21 | 131 | 6.4 | 24.1 | 0.00 | 0.00 | 0.00 | 76 | 1009.0 |
| 20260502015218 | 22 | 131 | 6.4 | 24.1 | 0.00 | 0.00 | 0.00 | 76 | 1009.0 |
| 20260502014218 | 21 | 129 | 4.8 | 17.7 | 0.00 | 0.00 | 0.00 | 72 | 1009.0 |
| 20260502013218 | 22 | 129 | 4.8 | 17.7 | 0.00 | 0.00 | 0.00 | 72 | 1008.0 |
| 20260502012217 | 22 | 129 | 4.8 | 17.7 | 0.00 | 0.00 | 0.00 | 72 | 1008.0 |
| 20260502011217 | 21 | 129 | 4.8 | 17.7 | 0.00 | 0.00 | 0.00 | 70 | 1008.0 |
| 20260502010217 | 22 | 129 | 4.8 | 17.7 | 0.00 | 0.00 | 0.00 | 70 | 1008.0 |
| 20260502005216 | 23 | 129 | 4.8 | 17.7 | 0.00 | 0.00 | 0.00 | 70 | 1008.0 |
| 20260502004216 | 22 | 129 | 4.8 | 17.7 | 0.00 | 0.00 | 0.00 | 70 | 1008.0 |
| 20260502003216 | 23 | 129 | 4.8 | 17.7 | 0.00 | 0.00 | 0.00 | 70 | 1008.0 |
| 20260502002215 | 23 | 129 | 4.8 | 16.1 | 0.00 | 0.00 | 0.00 | 60 | 1007.0 |
| 20260502001215 | 23 | 129 | 4.8 | 16.1 | 0.00 | 0.00 | 0.00 | 60 | 1007.0 |
| 20260502000215 | 25 | 129 | 4.8 | 16.1 | 0.00 | 0.00 | 0.00 | 60 | 1007.0 |
| 20260501235215 | 23 | 129 | 4.8 | 16.1 | 0.00 | 0.00 | 0.00 | 63 | 1007.0 |
| 20260501234214 | 23 | 129 | 4.8 | 16.1 | 0.00 | 0.00 | 0.00 | 63 | 1007.0 |